Time,TemperatureF,DewpointF,PressureIn,WindDirection,WindDirectionDegrees,WindSpeedMPH,WindSpeedGustMPH,Humidity,HourlyPrecipIn,Conditions,Clouds,dailyrainin,SoftwareType,DateUTC
2013-02-12 00:00:00,47.6,33.1,29.94,SE,126,2.0,4.0,57,0.00,,---,0.00,VWS V14.01,2013-02-12 05:00:00,
2013-02-12 00:05:00,47.4,31.6,29.93,South,171,1.0,5.0,54,0.00,,---,0.00,VWS V14.01,2013-02-12 05:05:00,
2013-02-12 00:10:00,47.2,34.0,29.95,SSE,162,1.0,4.0,60,0.00,,---,0.00,VWS V14.01,2013-02-12 05:10:00,
2013-02-12 00:15:00,46.9,32.0,29.95,SSE,165,1.0,5.0,56,0.00,,---,0.00,VWS V14.01,2013-02-12 05:15:00,
2013-02-12 00:20:00,46.6,32.6,29.96,East,95,2.0,6.0,58,0.00,,---,0.00,VWS V14.01,2013-02-12 05:20:00,
2013-02-12 00:25:00,46.5,29.8,29.96,East,82,5.0,7.0,52,0.00,,---,0.00,VWS V14.01,2013-02-12 05:25:00,
2013-02-12 00:30:00,47.3,26.0,29.96,SE,132,2.0,7.0,43,0.00,,---,0.00,VWS V14.01,2013-02-12 05:30:00,
2013-02-12 00:35:00,48.5,25.3,29.96,East,96,7.0,11.0,40,0.00,,---,0.00,VWS V14.01,2013-02-12 05:35:00,
2013-02-12 00:40:00,49.9,24.7,29.95,ESE,107,2.0,11.0,37,0.00,,---,0.00,VWS V14.01,2013-02-12 05:40:00,
2013-02-12 00:45:00,50.6,25.3,29.95,South,174,4.0,12.0,37,0.00,,---,0.00,VWS V14.01,2013-02-12 05:45:00,
2013-02-12 00:50:00,51.1,24.4,29.95,NE,51,8.0,18.0,35,0.00,,---,0.00,VWS V14.01,2013-02-12 05:50:00,
2013-02-12 00:55:00,51.5,23.4,29.95,ESE,109,5.0,18.0,33,0.00,,---,0.00,VWS V14.01,2013-02-12 05:55:00,
2013-02-12 01:00:00,51.7,23.5,29.94,ESE,110,6.0,12.0,33,0.00,,---,0.00,VWS V14.01,2013-02-12 06:00:00,
2013-02-12 01:05:00,51.7,23.5,29.95,ESE,111,4.0,13.0,33,0.00,,---,0.00,VWS V14.01,2013-02-12 06:05:00,
2013-02-12 01:10:00,51.6,23.5,29.96,ESE,106,6.0,12.0,33,0.00,,---,0.00,VWS V14.01,2013-02-12 06:10:00,
2013-02-12 01:15:00,51.5,24.1,29.95,ENE,77,4.0,13.0,34,0.00,,---,0.00,VWS V14.01,2013-02-12 06:15:00,
2013-02-12 01:20:00,51.4,24.0,29.96,ESE,111,5.0,11.0,34,0.00,,---,0.00,VWS V14.01,2013-02-12 06:20:00,
2013-02-12 01:25:00,51.3,23.2,29.96,SSE,150,4.0,10.0,33,0.00,,---,0.00,VWS V14.01,2013-02-12 06:25:00,
2013-02-12 01:30:00,51.2,23.1,29.96,ENE,76,5.0,12.0,33,0.00,,---,0.00,VWS V14.01,2013-02-12 06:30:00,
2013-02-12 01:35:00,51.2,22.4,29.96,ENE,58,7.0,20.0,32,0.00,,---,0.00,VWS V14.01,2013-02-12 06:35:00,
2013-02-12 01:40:00,51.2,23.1,29.96,SE,130,6.0,15.0,33,0.00,,---,0.00,VWS V14.01,2013-02-12 06:40:00,
2013-02-12 01:45:00,51.3,22.5,29.96,ESE,114,8.0,12.0,32,0.00,,---,0.00,VWS V14.01,2013-02-12 06:45:00,
2013-02-12 01:50:00,51.2,22.4,29.96,SE,133,6.0,13.0,32,0.00,,---,0.00,VWS V14.01,2013-02-12 06:50:00,
2013-02-12 01:55:00,51.1,22.3,29.96,East,97,4.0,8.0,32,0.00,,---,0.00,VWS V14.01,2013-02-12 06:55:00,
2013-02-12 02:00:00,50.9,22.1,29.96,NE,56,5.0,10.0,32,0.00,,---,0.00,VWS V14.01,2013-02-12 07:00:00,
2013-02-12 02:05:00,50.7,22.7,29.98,SE,139,9.0,10.0,33,0.00,,---,0.00,VWS V14.01,2013-02-12 07:05:00,
2013-02-12 02:10:00,50.6,22.6,29.97,NE,51,8.0,9.0,33,0.00,,---,0.00,VWS V14.01,2013-02-12 07:10:00,
2013-02-12 02:15:00,50.4,22.4,29.97,East,96,0.0,16.0,33,0.00,,---,0.00,VWS V14.01,2013-02-12 07:15:00,
2013-02-12 02:20:00,50.2,22.2,29.98,SW,219,1.0,5.0,33,0.00,,---,0.00,VWS V14.01,2013-02-12 07:20:00,
2013-02-12 02:25:00,50.0,23.4,29.97,SSE,148,6.0,8.0,35,0.00,,---,0.00,VWS V14.01,2013-02-12 07:25:00,
2013-02-12 02:30:00,49.9,24.0,29.98,East,95,2.0,6.0,36,0.00,,---,0.00,VWS V14.01,2013-02-12 07:30:00,
2013-02-12 02:35:00,49.6,23.8,29.98,South,179,6.0,6.0,36,0.00,,---,0.00,VWS V14.01,2013-02-12 07:35:00,
2013-02-12 02:40:00,49.3,22.8,29.99,SSW,193,2.0,8.0,35,0.00,,---,0.00,VWS V14.01,2013-02-12 07:40:00,
2013-02-12 02:45:00,49.0,23.9,29.99,South,178,7.0,7.0,37,0.00,,---,0.00,VWS V14.01,2013-02-12 07:45:00,
2013-02-12 02:50:00,49.0,24.5,29.99,SSE,148,2.0,7.0,38,0.00,,---,0.00,VWS V14.01,2013-02-12 07:50:00,
2013-02-12 02:55:00,48.9,25.0,29.99,SSW,196,3.0,6.0,39,0.00,,---,0.00,VWS V14.01,2013-02-12 07:55:00,
2013-02-12 03:00:00,48.7,26.1,29.99,SSW,192,2.0,4.0,41,0.00,,---,0.00,VWS V14.01,2013-02-12 08:00:00,
2013-02-12 03:05:00,48.5,25.9,30.00,SSW,211,2.0,6.0,41,0.00,,---,0.00,VWS V14.01,2013-02-12 08:05:00,
2013-02-12 03:10:00,48.1,26.7,29.99,SSE,157,4.0,9.0,43,0.00,,---,0.00,VWS V14.01,2013-02-12 08:10:00,
2013-02-12 03:15:00,47.7,27.4,29.99,SSW,193,2.0,5.0,45,0.00,,---,0.00,VWS V14.01,2013-02-12 08:15:00,
2013-02-12 03:20:00,47.4,27.1,30.00,SE,145,2.0,8.0,45,0.00,,---,0.00,VWS V14.01,2013-02-12 08:20:00,
2013-02-12 03:25:00,47.0,26.8,30.00,SW,216,4.0,8.0,45,0.00,,---,0.00,VWS V14.01,2013-02-12 08:25:00,
2013-02-12 03:30:00,46.8,27.1,30.00,SSW,194,2.0,4.0,46,0.00,,---,0.00,VWS V14.01,2013-02-12 08:30:00,
2013-02-12 03:35:00,46.5,26.9,30.00,SSW,196,2.0,5.0,46,0.00,,---,0.00,VWS V14.01,2013-02-12 08:35:00,
2013-02-12 03:40:00,46.1,26.5,30.01,SW,223,2.0,6.0,46,0.00,,---,0.00,VWS V14.01,2013-02-12 08:40:00,
2013-02-12 03:45:00,45.9,27.3,29.99,SW,222,3.0,4.0,48,0.00,,---,0.00,VWS V14.01,2013-02-12 08:45:00,
2013-02-12 03:50:00,45.5,27.5,29.99,SW,222,1.0,4.0,49,0.00,,---,0.00,VWS V14.01,2013-02-12 08:50:00,
2013-02-12 03:55:00,45.0,27.0,29.99,SSE,167,2.0,5.0,49,0.00,,---,0.00,VWS V14.01,2013-02-12 08:55:00,
2013-02-12 04:00:00,44.8,25.8,29.99,South,175,1.0,7.0,47,0.00,,---,0.00,VWS V14.01,2013-02-12 09:00:00,
2013-02-12 04:05:00,44.6,25.1,29.99,West,273,1.0,4.0,46,0.00,,---,0.00,VWS V14.01,2013-02-12 09:05:00,
2013-02-12 04:10:00,44.6,26.1,29.99,NE,54,3.0,5.0,48,0.00,,---,0.00,VWS V14.01,2013-02-12 09:10:00,
2013-02-12 04:15:00,44.6,25.6,30.00,NE,47,0.0,4.0,47,0.00,,---,0.00,VWS V14.01,2013-02-12 09:15:00,
2013-02-12 04:20:00,44.6,25.1,30.00,SW,236,2.0,6.0,46,0.00,,---,0.00,VWS V14.01,2013-02-12 09:20:00,
2013-02-12 04:25:00,44.3,25.9,30.00,ENE,71,6.0,7.0,48,0.00,,---,0.00,VWS V14.01,2013-02-12 09:25:00,
2013-02-12 04:30:00,44.7,24.7,30.00,ENE,59,2.0,17.0,45,0.00,,---,0.00,VWS V14.01,2013-02-12 09:30:00,
2013-02-12 04:35:00,45.0,25.0,29.99,East,94,5.0,8.0,45,0.00,,---,0.00,VWS V14.01,2013-02-12 09:35:00,
2013-02-12 04:40:00,45.1,25.6,30.00,East,92,1.0,5.0,46,0.00,,---,0.00,VWS V14.01,2013-02-12 09:40:00,
2013-02-12 04:45:00,45.0,25.5,30.01,ENE,67,2.0,5.0,46,0.00,,---,0.00,VWS V14.01,2013-02-12 09:45:00,
2013-02-12 04:50:00,44.9,26.9,30.00,North,355,4.0,5.0,49,0.00,,---,0.00,VWS V14.01,2013-02-12 09:50:00,
2013-02-12 04:55:00,44.6,25.6,30.00,ENE,61,0.0,6.0,47,0.00,,---,0.00,VWS V14.01,2013-02-12 09:55:00,
2013-02-12 05:00:00,44.5,26.0,29.99,ENE,61,0.0,1.0,48,0.00,,---,0.00,VWS V14.01,2013-02-12 10:00:00,
2013-02-12 05:05:00,44.4,25.5,30.00,SSW,211,0.0,5.0,47,0.00,,---,0.00,VWS V14.01,2013-02-12 10:05:00,
2013-02-12 05:10:00,44.3,27.3,30.00,SE,145,0.0,2.0,51,0.00,,---,0.00,VWS V14.01,2013-02-12 10:10:00,
2013-02-12 05:15:00,44.1,26.2,30.00,SE,141,2.0,5.0,49,0.00,,---,0.00,VWS V14.01,2013-02-12 10:15:00,
2013-02-12 05:20:00,43.8,25.4,30.01,East,80,1.0,7.0,48,0.00,,---,0.00,VWS V14.01,2013-02-12 10:20:00,
2013-02-12 05:25:00,43.8,25.9,30.00,NNE,20,2.0,6.0,49,0.00,,---,0.00,VWS V14.01,2013-02-12 10:25:00,
2013-02-12 05:30:00,43.8,25.9,29.99,South,169,4.0,4.0,49,0.00,,---,0.00,VWS V14.01,2013-02-12 10:30:00,
2013-02-12 05:35:00,43.8,25.9,29.99,NNE,19,0.0,5.0,49,0.00,,---,0.00,VWS V14.01,2013-02-12 10:35:00,
2013-02-12 05:40:00,43.8,24.9,30.00,North,5,2.0,4.0,47,0.00,,---,0.00,VWS V14.01,2013-02-12 10:40:00,
2013-02-12 05:45:00,43.9,25.0,30.00,NE,51,6.0,7.0,47,0.00,,---,0.00,VWS V14.01,2013-02-12 10:45:00,
2013-02-12 05:50:00,44.2,24.8,30.00,NE,48,10.0,12.0,46,0.00,,---,0.00,VWS V14.01,2013-02-12 10:50:00,
2013-02-12 05:55:00,44.5,24.0,30.00,East,96,7.0,10.0,44,0.00,,---,0.00,VWS V14.01,2013-02-12 10:55:00,
2013-02-12 06:00:00,44.7,24.7,30.00,ENE,76,4.0,13.0,45,0.00,,---,0.00,VWS V14.01,2013-02-12 11:00:00,
2013-02-12 06:05:00,44.7,24.1,29.99,NNE,15,3.0,7.0,44,0.00,,---,0.00,VWS V14.01,2013-02-12 11:05:00,
2013-02-12 06:10:00,44.7,24.7,29.99,ENE,69,3.0,8.0,45,0.00,,---,0.00,VWS V14.01,2013-02-12 11:10:00,
2013-02-12 06:15:00,44.6,24.6,30.00,ENE,69,2.0,3.0,45,0.00,,---,0.00,VWS V14.01,2013-02-12 11:15:00,
2013-02-12 06:20:00,44.5,24.0,30.00,ESE,111,6.0,14.0,44,0.00,,---,0.00,VWS V14.01,2013-02-12 11:20:00,
2013-02-12 06:25:00,44.5,24.0,30.00,ENE,71,1.0,6.0,44,0.00,,---,0.00,VWS V14.01,2013-02-12 11:25:00,
2013-02-12 06:30:00,44.4,24.9,30.00,NE,54,0.0,7.0,46,0.00,,---,0.00,VWS V14.01,2013-02-12 11:30:00,
2013-02-12 06:35:00,44.4,24.4,30.00,East,92,2.0,13.0,45,0.00,,---,0.00,VWS V14.01,2013-02-12 11:35:00,
2013-02-12 06:40:00,44.4,23.9,29.99,SE,132,8.0,19.0,44,0.00,,---,0.00,VWS V14.01,2013-02-12 11:40:00,
2013-02-12 06:45:00,44.4,23.9,30.00,NE,37,5.0,8.0,44,0.00,,---,0.00,VWS V14.01,2013-02-12 11:45:00,
2013-02-12 06:50:00,44.3,23.8,29.99,East,84,4.0,10.0,44,0.00,,---,0.00,VWS V14.01,2013-02-12 11:50:00,
2013-02-12 06:55:00,44.3,23.2,30.01,ENE,62,4.0,8.0,43,0.00,,---,0.00,VWS V14.01,2013-02-12 11:55:00,
2013-02-12 07:00:00,44.3,23.2,30.01,ENE,65,4.0,18.0,43,0.00,,---,0.00,VWS V14.01,2013-02-12 12:00:00,
2013-02-12 07:05:00,44.3,24.3,30.01,ENE,67,4.0,7.0,45,0.00,,---,0.00,VWS V14.01,2013-02-12 12:05:00,
2013-02-12 07:10:00,44.2,24.2,30.01,ENE,57,5.0,11.0,45,0.00,,---,0.00,VWS V14.01,2013-02-12 12:10:00,
2013-02-12 07:15:00,44.1,24.1,30.01,NE,47,5.0,8.0,45,0.00,,---,0.00,VWS V14.01,2013-02-12 12:15:00,
2013-02-12 07:20:00,44.0,24.0,30.02,NNE,22,8.0,12.0,45,0.00,,---,0.00,VWS V14.01,2013-02-12 12:20:00,
2013-02-12 07:25:00,44.0,23.5,30.01,NE,44,8.0,18.0,44,0.00,,---,0.00,VWS V14.01,2013-02-12 12:25:00,
2013-02-12 07:30:00,44.0,23.5,30.02,East,90,5.0,16.0,44,0.00,,---,0.00,VWS V14.01,2013-02-12 12:30:00,
2013-02-12 07:35:00,44.1,24.1,30.02,ENE,66,6.0,14.0,45,0.00,,---,0.00,VWS V14.01,2013-02-12 12:35:00,
2013-02-12 07:40:00,44.1,23.6,30.02,East,85,2.0,11.0,44,0.00,,---,0.00,VWS V14.01,2013-02-12 12:40:00,
2013-02-12 07:45:00,44.2,23.7,30.03,ENE,67,5.0,12.0,44,0.00,,---,0.00,VWS V14.01,2013-02-12 12:45:00,
2013-02-12 07:50:00,44.2,23.7,30.03,ENE,77,12.0,18.0,44,0.00,,---,0.00,VWS V14.01,2013-02-12 12:50:00,
2013-02-12 07:55:00,44.3,23.8,30.04,ENE,73,0.0,12.0,44,0.00,,---,0.00,VWS V14.01,2013-02-12 12:55:00,
2013-02-12 08:00:00,44.3,24.3,30.03,NE,44,7.0,11.0,45,0.00,,---,0.00,VWS V14.01,2013-02-12 13:00:00,
2013-02-12 08:05:00,44.3,24.3,30.02,ENE,78,6.0,11.0,45,0.00,,---,0.00,VWS V14.01,2013-02-12 13:05:00,
2013-02-12 08:10:00,44.3,24.3,30.03,ENE,71,2.0,12.0,45,0.00,,---,0.00,VWS V14.01,2013-02-12 13:10:00,
2013-02-12 08:15:00,44.3,24.8,30.03,North,360,7.0,9.0,46,0.00,,---,0.00,VWS V14.01,2013-02-12 13:15:00,
2013-02-12 08:20:00,44.5,23.4,30.03,West,264,1.0,14.0,43,0.00,,---,0.00,VWS V14.01,2013-02-12 13:20:00,
2013-02-12 08:25:00,44.9,23.8,30.03,NE,40,8.0,14.0,43,0.00,,---,0.00,VWS V14.01,2013-02-12 13:25:00,
2013-02-12 08:30:00,44.9,24.3,30.04,SSE,164,2.0,8.0,44,0.00,,---,0.00,VWS V14.01,2013-02-12 13:30:00,
2013-02-12 08:35:00,45.0,23.9,30.03,NE,45,1.0,9.0,43,0.00,,---,0.00,VWS V14.01,2013-02-12 13:35:00,
2013-02-12 08:40:00,45.0,24.4,30.03,North,5,0.0,7.0,44,0.00,,---,0.00,VWS V14.01,2013-02-12 13:40:00,
2013-02-12 08:45:00,45.1,24.5,30.04,NNW,328,0.0,6.0,44,0.00,,---,0.00,VWS V14.01,2013-02-12 13:45:00,
2013-02-12 08:50:00,45.1,24.5,30.03,NW,313,1.0,6.0,44,0.00,,---,0.00,VWS V14.01,2013-02-12 13:50:00,
2013-02-12 08:55:00,45.2,23.5,30.03,NE,48,5.0,8.0,42,0.00,,---,0.00,VWS V14.01,2013-02-12 13:55:00,
2013-02-12 09:00:00,45.3,23.6,30.03,WNW,293,8.0,11.0,42,0.00,,---,0.00,VWS V14.01,2013-02-12 14:00:00,
2013-02-12 09:05:00,45.4,24.2,30.03,ENE,68,4.0,12.0,43,0.00,,---,0.00,VWS V14.01,2013-02-12 14:05:00,
2013-02-12 09:10:00,45.7,25.0,30.04,NE,51,1.0,7.0,44,0.00,,---,0.00,VWS V14.01,2013-02-12 14:10:00,
2013-02-12 09:15:00,46.0,24.8,30.05,East,94,9.0,19.0,43,0.00,,---,0.00,VWS V14.01,2013-02-12 14:15:00,
2013-02-12 09:20:00,46.5,24.1,30.05,SE,144,2.0,12.0,41,0.00,,---,0.00,VWS V14.01,2013-02-12 14:20:00,
2013-02-12 09:25:00,47.0,24.5,30.05,NNE,20,4.0,11.0,41,0.00,,---,0.00,VWS V14.01,2013-02-12 14:25:00,
2013-02-12 09:30:00,47.2,25.9,30.05,NW,311,2.0,7.0,43,0.00,,---,0.00,VWS V14.01,2013-02-12 14:30:00,
2013-02-12 09:35:00,47.3,26.0,30.06,NW,318,4.0,7.0,43,0.00,,---,0.00,VWS V14.01,2013-02-12 14:35:00,
2013-02-12 09:40:00,47.8,25.3,30.06,ESE,112,7.0,7.0,41,0.00,,---,0.00,VWS V14.01,2013-02-12 14:40:00,
2013-02-12 09:45:00,48.3,23.9,30.06,ESE,104,8.0,16.0,38,0.00,,---,0.00,VWS V14.01,2013-02-12 14:45:00,
2013-02-12 09:50:00,48.3,25.7,30.06,NE,44,10.0,16.0,41,0.00,,---,0.00,VWS V14.01,2013-02-12 14:50:00,
2013-02-12 09:55:00,48.2,23.2,30.07,ENE,65,5.0,20.0,37,0.00,,---,0.00,VWS V14.01,2013-02-12 14:55:00,
2013-02-12 10:00:00,48.0,23.6,30.06,ENE,67,11.0,12.0,38,0.00,,---,0.00,VWS V14.01,2013-02-12 15:00:00,
2013-02-12 10:05:00,48.3,24.5,30.07,ENE,64,7.0,11.0,39,0.00,,---,0.00,VWS V14.01,2013-02-12 15:05:00,
2013-02-12 10:10:00,48.5,23.4,30.06,East,91,8.0,13.0,37,0.00,,---,0.00,VWS V14.01,2013-02-12 15:10:00,
2013-02-12 10:15:00,48.4,23.3,30.06,SE,124,1.0,12.0,37,0.00,,---,0.00,VWS V14.01,2013-02-12 15:15:00,
2013-02-12 10:20:00,48.9,25.0,30.06,ENE,57,2.0,7.0,39,0.00,,---,0.00,VWS V14.01,2013-02-12 15:20:00,
2013-02-12 10:25:00,49.4,25.5,30.05,North,360,8.0,11.0,39,0.00,,---,0.00,VWS V14.01,2013-02-12 15:25:00,
2013-02-12 10:30:00,49.7,24.5,30.06,ENE,60,3.0,10.0,37,0.00,,---,0.00,VWS V14.01,2013-02-12 15:30:00,
2013-02-12 10:35:00,49.7,25.1,30.05,NNW,342,1.0,7.0,38,0.00,,---,0.00,VWS V14.01,2013-02-12 15:35:00,
2013-02-12 10:40:00,50.3,26.3,30.06,NE,38,3.0,8.0,39,0.00,,---,0.00,VWS V14.01,2013-02-12 15:40:00,
2013-02-12 10:45:00,51.0,28.7,30.06,ENE,60,6.0,11.0,42,0.00,,---,0.00,VWS V14.01,2013-02-12 15:45:00,
2013-02-12 10:50:00,51.2,26.5,30.06,NNW,343,4.0,11.0,38,0.00,,---,0.00,VWS V14.01,2013-02-12 15:50:00,
2013-02-12 10:55:00,51.1,25.8,30.06,North,11,6.0,9.0,37,0.00,,---,0.00,VWS V14.01,2013-02-12 15:55:00,
2013-02-12 11:00:00,51.1,25.8,30.05,NE,37,5.0,8.0,37,0.00,,---,0.00,VWS V14.01,2013-02-12 16:00:00,
2013-02-12 11:05:00,51.2,25.8,30.04,NNE,21,4.0,6.0,37,0.00,,---,0.00,VWS V14.01,2013-02-12 16:05:00,
2013-02-12 11:10:00,51.4,25.4,30.06,NNE,27,3.0,7.0,36,0.00,,---,0.00,VWS V14.01,2013-02-12 16:10:00,
2013-02-12 11:15:00,51.6,25.5,30.05,North,5,4.0,8.0,36,0.00,,---,0.00,VWS V14.01,2013-02-12 16:15:00,
2013-02-12 11:20:00,51.8,27.6,30.04,NW,324,4.0,6.0,39,0.00,,---,0.00,VWS V14.01,2013-02-12 16:20:00,
2013-02-12 11:25:00,52.6,27.7,30.04,NW,313,5.0,8.0,38,0.00,,---,0.00,VWS V14.01,2013-02-12 16:25:00,
2013-02-12 11:30:00,53.2,28.3,30.04,North,360,5.0,8.0,38,0.00,,---,0.00,VWS V14.01,2013-02-12 16:30:00,
2013-02-12 11:35:00,53.3,29.0,30.03,WSW,258,2.0,7.0,39,0.00,,---,0.00,VWS V14.01,2013-02-12 16:35:00,
2013-02-12 11:40:00,53.3,29.0,30.02,West,273,1.0,8.0,39,0.00,,---,0.00,VWS V14.01,2013-02-12 16:40:00,
2013-02-12 11:45:00,53.3,25.0,30.02,ESE,108,4.0,7.0,33,0.00,,---,0.00,VWS V14.01,2013-02-12 16:45:00,
2013-02-12 11:50:00,53.8,28.8,30.02,North,5,2.0,8.0,38,0.00,,---,0.00,VWS V14.01,2013-02-12 16:50:00,
2013-02-12 11:55:00,54.2,28.5,30.01,NNE,19,3.0,6.0,37,0.00,,---,0.00,VWS V14.01,2013-02-12 16:55:00,
2013-02-12 12:00:00,54.3,26.5,30.00,NNE,22,2.0,7.0,34,0.00,,---,0.00,VWS V14.01,2013-02-12 17:00:00,
2013-02-12 12:05:00,54.5,26.0,29.99,SSW,199,7.0,15.0,33,0.00,,---,0.00,VWS V14.01,2013-02-12 17:05:00,
2013-02-12 12:10:00,55.2,24.3,29.98,South,189,6.0,20.0,30,0.00,,---,0.00,VWS V14.01,2013-02-12 17:10:00,
2013-02-12 12:15:00,55.4,21.1,29.97,WSW,239,4.0,16.0,26,0.00,,---,0.00,VWS V14.01,2013-02-12 17:15:00,
2013-02-12 12:20:00,55.3,21.0,29.96,ESE,103,8.0,20.0,26,0.00,,---,0.00,VWS V14.01,2013-02-12 17:20:00,
2013-02-12 12:25:00,55.0,19.8,29.97,SE,145,2.0,15.0,25,0.00,,---,0.00,VWS V14.01,2013-02-12 17:25:00,
2013-02-12 12:30:00,55.3,21.0,29.97,ESE,107,6.0,11.0,26,0.00,,---,0.00,VWS V14.01,2013-02-12 17:30:00,
2013-02-12 12:35:00,55.5,21.2,29.98,ESE,111,1.0,7.0,26,0.00,,---,0.00,VWS V14.01,2013-02-12 17:35:00,
2013-02-12 12:40:00,55.9,20.6,29.98,SSE,153,1.0,5.0,25,0.00,,---,0.00,VWS V14.01,2013-02-12 17:40:00,
2013-02-12 12:45:00,56.4,20.1,29.98,East,84,3.0,10.0,24,0.00,,---,0.00,VWS V14.01,2013-02-12 17:45:00,
2013-02-12 12:50:00,56.4,18.0,29.98,ENE,74,5.0,14.0,22,0.00,,---,0.00,VWS V14.01,2013-02-12 17:50:00,
2013-02-12 12:55:00,56.9,21.5,29.98,SSE,148,7.0,7.0,25,0.00,,---,0.00,VWS V14.01,2013-02-12 17:55:00,
2013-02-12 13:00:00,57.2,23.5,29.98,NE,35,11.0,11.0,27,0.00,,---,0.00,VWS V14.01,2013-02-12 18:00:00,
2013-02-12 13:05:00,57.5,27.1,29.99,North,360,9.0,14.0,31,0.00,,---,0.00,VWS V14.01,2013-02-12 18:05:00,
2013-02-12 13:10:00,57.6,24.8,29.99,North,355,5.0,9.0,28,0.00,,---,0.00,VWS V14.01,2013-02-12 18:10:00,
2013-02-12 13:15:00,57.5,24.7,29.98,NNE,12,3.0,6.0,28,0.00,,---,0.00,VWS V14.01,2013-02-12 18:15:00,
2013-02-12 13:20:00,57.8,25.8,29.99,North,360,4.0,8.0,29,0.00,,---,0.00,VWS V14.01,2013-02-12 18:20:00,
2013-02-12 13:25:00,57.7,26.5,29.99,North,10,4.0,12.0,30,0.00,,---,0.00,VWS V14.01,2013-02-12 18:25:00,
2013-02-12 13:30:00,57.0,25.1,29.99,North,5,4.0,6.0,29,0.00,,---,0.00,VWS V14.01,2013-02-12 18:30:00,
2013-02-12 13:35:00,57.2,25.2,29.99,NNW,335,2.0,10.0,29,0.00,,---,0.00,VWS V14.01,2013-02-12 18:35:00,
2013-02-12 13:40:00,57.4,26.2,29.99,NNW,347,6.0,8.0,30,0.00,,---,0.00,VWS V14.01,2013-02-12 18:40:00,
2013-02-12 13:45:00,57.8,26.6,29.98,NNW,329,6.0,7.0,30,0.00,,---,0.00,VWS V14.01,2013-02-12 18:45:00,
2013-02-12 13:50:00,57.8,24.9,29.98,North,349,6.0,9.0,28,0.00,,---,0.00,VWS V14.01,2013-02-12 18:50:00,
2013-02-12 13:55:00,57.8,25.8,29.98,NE,40,4.0,9.0,29,0.00,,---,0.00,VWS V14.01,2013-02-12 18:55:00,
2013-02-12 14:00:00,57.7,24.0,29.98,NNE,26,3.0,8.0,27,0.00,,---,0.00,VWS V14.01,2013-02-12 19:00:00,
2013-02-12 14:05:00,57.6,25.6,29.98,North,355,5.0,7.0,29,0.00,,---,0.00,VWS V14.01,2013-02-12 19:05:00,
2013-02-12 14:10:00,57.6,24.8,29.97,NNW,340,5.0,8.0,28,0.00,,---,0.00,VWS V14.01,2013-02-12 19:10:00,
2013-02-12 14:15:00,57.4,23.7,29.96,North,355,4.0,9.0,27,0.00,,---,0.00,VWS V14.01,2013-02-12 19:15:00,
2013-02-12 14:20:00,57.6,26.4,29.96,NNE,19,7.0,7.0,30,0.00,,---,0.00,VWS V14.01,2013-02-12 19:20:00,
2013-02-12 14:25:00,57.7,26.5,29.95,North,360,5.0,8.0,30,0.00,,---,0.00,VWS V14.01,2013-02-12 19:25:00,
2013-02-12 14:30:00,58.2,25.3,29.96,NNE,22,3.0,6.0,28,0.00,,---,0.00,VWS V14.01,2013-02-12 19:30:00,
2013-02-12 14:35:00,58.4,25.5,29.95,North,5,6.0,7.0,28,0.00,,---,0.00,VWS V14.01,2013-02-12 19:35:00,
2013-02-12 14:40:00,58.0,23.3,29.96,NE,40,3.0,8.0,26,0.00,,---,0.00,VWS V14.01,2013-02-12 19:40:00,
2013-02-12 14:45:00,57.9,25.9,29.96,NE,49,3.0,8.0,29,0.00,,---,0.00,VWS V14.01,2013-02-12 19:45:00,
2013-02-12 14:50:00,57.6,23.9,29.95,NE,50,4.0,6.0,27,0.00,,---,0.00,VWS V14.01,2013-02-12 19:50:00,
2013-02-12 14:55:00,57.6,25.6,29.95,ENE,67,1.0,5.0,29,0.00,,---,0.00,VWS V14.01,2013-02-12 19:55:00,
2013-02-12 15:00:00,57.8,25.8,29.95,NE,36,5.0,5.0,29,0.00,,---,0.00,VWS V14.01,2013-02-12 20:00:00,
2013-02-12 15:05:00,57.5,25.5,29.94,NE,44,3.0,10.0,29,0.00,,---,0.00,VWS V14.01,2013-02-12 20:05:00,
2013-02-12 15:10:00,57.0,25.1,29.94,North,355,7.0,10.0,29,0.00,,---,0.00,VWS V14.01,2013-02-12 20:10:00,
2013-02-12 15:15:00,56.7,25.6,29.94,NE,55,0.0,7.0,30,0.00,,---,0.00,VWS V14.01,2013-02-12 20:15:00,
2013-02-12 15:20:00,56.6,24.7,29.94,NNE,23,2.0,8.0,29,0.00,,---,0.00,VWS V14.01,2013-02-12 20:20:00,
2013-02-12 15:25:00,56.4,23.7,29.95,North,9,6.0,8.0,28,0.00,,---,0.00,VWS V14.01,2013-02-12 20:25:00,
2013-02-12 15:30:00,56.3,26.1,29.95,North,360,4.0,8.0,31,0.00,,---,0.00,VWS V14.01,2013-02-12 20:30:00,
2013-02-12 15:35:00,56.0,24.2,29.95,North,5,3.0,8.0,29,0.00,,---,0.00,VWS V14.01,2013-02-12 20:35:00,
2013-02-12 15:40:00,55.9,25.7,29.95,NNE,16,3.0,6.0,31,0.00,,---,0.00,VWS V14.01,2013-02-12 20:40:00,
2013-02-12 15:45:00,55.9,24.1,29.96,ENE,63,4.0,7.0,29,0.00,,---,0.00,VWS V14.01,2013-02-12 20:45:00,
2013-02-12 15:50:00,55.9,25.7,29.97,ENE,77,4.0,8.0,31,0.00,,---,0.00,VWS V14.01,2013-02-12 20:50:00,
2013-02-12 15:55:00,55.9,24.1,29.98,NNE,31,2.0,5.0,29,0.00,,---,0.00,VWS V14.01,2013-02-12 20:55:00,
2013-02-12 16:00:00,55.7,27.1,29.97,NNE,32,2.0,5.0,33,0.00,,---,0.00,VWS V14.01,2013-02-12 21:00:00,
2013-02-12 16:05:00,55.5,24.6,29.97,NNE,32,2.0,3.0,30,0.00,,---,0.00,VWS V14.01,2013-02-12 21:05:00,
2013-02-12 16:10:00,55.4,26.0,29.96,NNE,32,1.0,3.0,32,0.00,,---,0.00,VWS V14.01,2013-02-12 21:10:00,
2013-02-12 16:15:00,55.3,26.0,29.97,NNE,32,0.0,3.0,32,0.00,,---,0.00,VWS V14.01,2013-02-12 21:15:00,
2013-02-12 16:20:00,55.2,26.6,29.96,NNE,32,1.0,2.0,33,0.00,,---,0.00,VWS V14.01,2013-02-12 21:20:00,
2013-02-12 16:25:00,55.1,25.8,29.96,NNE,32,0.0,3.0,32,0.00,,---,0.00,VWS V14.01,2013-02-12 21:25:00,
2013-02-12 16:30:00,55.0,25.7,29.97,NNE,32,0.0,3.0,32,0.00,,---,0.00,VWS V14.01,2013-02-12 21:30:00,
2013-02-12 16:35:00,55.0,26.5,29.96,NNE,32,1.0,2.0,33,0.00,,---,0.00,VWS V14.01,2013-02-12 21:35:00,
2013-02-12 16:40:00,55.0,26.5,29.96,NNE,32,1.0,2.0,33,0.00,,---,0.00,VWS V14.01,2013-02-12 21:40:00,
2013-02-12 16:45:00,55.0,29.9,29.96,NNE,32,0.0,1.0,38,0.00,,---,0.00,VWS V14.01,2013-02-12 21:45:00,
2013-02-12 16:50:00,54.9,27.8,29.95,NNE,32,0.0,0.0,35,0.00,,---,0.00,VWS V14.01,2013-02-12 21:50:00,
2013-02-12 16:55:00,54.8,29.7,29.94,NNE,32,2.0,2.0,38,0.00,,---,0.00,VWS V14.01,2013-02-12 21:55:00,
2013-02-12 17:00:00,54.5,30.1,29.94,NNE,32,0.0,2.0,39,0.00,,---,0.00,VWS V14.01,2013-02-12 22:00:00,
2013-02-12 17:05:00,54.3,32.3,29.93,NNE,32,1.0,3.0,43,0.00,,---,0.00,VWS V14.01,2013-02-12 22:05:00,
2013-02-12 17:10:00,54.0,33.2,29.94,NNE,32,0.0,1.0,45,0.00,,---,0.00,VWS V14.01,2013-02-12 22:10:00,
2013-02-12 17:15:00,53.8,30.7,29.94,NNE,32,1.0,2.0,41,0.00,,---,0.00,VWS V14.01,2013-02-12 22:15:00,
2013-02-12 17:20:00,53.6,32.2,29.94,NNE,32,0.0,2.0,44,0.00,,---,0.00,VWS V14.01,2013-02-12 22:20:00,
2013-02-12 17:25:00,53.3,32.0,29.96,NNE,32,1.0,3.0,44,0.00,,---,0.00,VWS V14.01,2013-02-12 22:25:00,
2013-02-12 17:30:00,53.1,32.3,29.96,NNE,32,0.0,1.0,45,0.00,,---,0.00,VWS V14.01,2013-02-12 22:30:00,
2013-02-12 17:35:00,52.9,31.6,29.96,NNE,32,0.0,0.0,44,0.00,,---,0.00,VWS V14.01,2013-02-12 22:35:00,
2013-02-12 17:40:00,52.7,32.5,29.95,NNE,32,2.0,2.0,46,0.00,,---,0.00,VWS V14.01,2013-02-12 22:40:00,
2013-02-12 17:45:00,52.4,33.3,29.96,NNE,32,0.0,2.0,48,0.00,,---,0.00,VWS V14.01,2013-02-12 22:45:00,
2013-02-12 17:50:00,52.2,33.1,29.97,NNE,32,0.0,1.0,48,0.00,,---,0.00,VWS V14.01,2013-02-12 22:50:00,
2013-02-12 17:55:00,52.0,34.0,29.97,NNE,32,0.0,0.0,50,0.00,,---,0.00,VWS V14.01,2013-02-12 22:55:00,
2013-02-12 18:00:00,51.7,35.1,29.96,NNE,32,0.0,0.0,53,0.00,,---,0.00,VWS V14.01,2013-02-12 23:00:00,
2013-02-12 18:05:00,51.5,34.0,29.95,NNE,32,2.0,3.0,51,0.00,,---,0.00,VWS V14.01,2013-02-12 23:05:00,
2013-02-12 18:10:00,51.0,32.0,29.94,NNE,32,4.0,5.0,48,0.00,,---,0.00,VWS V14.01,2013-02-12 23:10:00,
2013-02-12 18:15:00,50.8,31.8,29.94,SSW,198,2.0,4.0,48,0.00,,---,0.00,VWS V14.01,2013-02-12 23:15:00,
2013-02-12 18:20:00,50.7,32.8,29.94,SSW,198,1.0,2.0,50,0.00,,---,0.00,VWS V14.01,2013-02-12 23:20:00,
2013-02-12 18:25:00,50.6,32.2,29.93,SSW,198,2.0,4.0,49,0.00,,---,0.00,VWS V14.01,2013-02-12 23:25:00,
2013-02-12 18:30:00,50.5,31.6,29.95,SSW,198,1.0,3.0,48,0.00,,---,0.00,VWS V14.01,2013-02-12 23:30:00,
2013-02-12 18:35:00,50.5,32.1,29.95,SSW,198,3.0,3.0,49,0.00,,---,0.00,VWS V14.01,2013-02-12 23:35:00,
2013-02-12 18:40:00,50.5,31.6,29.94,SSW,198,2.0,4.0,48,0.00,,---,0.00,VWS V14.01,2013-02-12 23:40:00,
2013-02-12 18:45:00,50.5,32.1,29.93,SSW,198,0.0,3.0,49,0.00,,---,0.00,VWS V14.01,2013-02-12 23:45:00,
2013-02-12 18:50:00,50.4,33.9,29.93,SSW,198,1.0,2.0,53,0.00,,---,0.00,VWS V14.01,2013-02-12 23:50:00,
2013-02-12 18:55:00,50.3,35.2,29.93,SSW,198,0.0,1.0,56,0.00,,---,0.00,VWS V14.01,2013-02-12 23:55:00,
2013-02-12 19:00:00,50.0,27.8,29.92,SSW,200,2.0,4.0,42,0.00,,---,0.00,VWS V14.01,2013-02-13 00:00:00,
2013-02-12 19:05:00,50.0,28.4,29.91,SSW,198,3.0,5.0,43,0.00,,---,0.00,VWS V14.01,2013-02-13 00:05:00,
2013-02-12 19:10:00,50.1,27.9,29.90,SSW,198,2.0,4.0,42,0.00,,---,0.00,VWS V14.01,2013-02-13 00:10:00,
2013-02-12 19:15:00,50.1,26.7,29.89,SSW,193,2.0,3.0,40,0.00,,---,0.00,VWS V14.01,2013-02-13 00:15:00,
2013-02-12 19:20:00,50.3,25.7,29.89,SSE,159,0.0,6.0,38,0.00,,---,0.00,VWS V14.01,2013-02-13 00:20:00,
2013-02-12 19:25:00,50.4,25.8,29.89,South,178,2.0,5.0,38,0.00,,---,0.00,VWS V14.01,2013-02-13 00:25:00,
2013-02-12 19:30:00,50.6,24.6,29.89,WNW,285,6.0,6.0,36,0.00,,---,0.00,VWS V14.01,2013-02-13 00:30:00,
2013-02-12 19:35:00,50.8,23.5,29.89,SW,222,5.0,7.0,34,0.00,,---,0.00,VWS V14.01,2013-02-13 00:35:00,
2013-02-12 19:40:00,51.1,24.4,29.90,WSW,248,0.0,8.0,35,0.00,,---,0.00,VWS V14.01,2013-02-13 00:40:00,
2013-02-12 19:45:00,51.1,27.0,29.91,WSW,248,0.0,0.0,39,0.00,,---,0.00,VWS V14.01,2013-02-13 00:45:00,
2013-02-12 19:50:00,51.1,25.8,29.92,WSW,248,0.0,0.0,37,0.00,,---,0.00,VWS V14.01,2013-02-13 00:50:00,
2013-02-12 19:55:00,51.0,27.5,29.92,WSW,248,3.0,3.0,40,0.00,,---,0.00,VWS V14.01,2013-02-13 00:55:00,
2013-02-12 20:00:00,50.7,27.3,29.92,WSW,248,2.0,3.0,40,0.00,,---,0.00,VWS V14.01,2013-02-13 01:00:00,
2013-02-12 20:05:00,50.4,28.2,29.93,WSW,248,0.0,2.0,42,0.00,,---,0.00,VWS V14.01,2013-02-13 01:05:00,
2013-02-12 20:10:00,50.1,26.7,29.93,WSW,240,0.0,3.0,40,0.00,,---,0.00,VWS V14.01,2013-02-13 01:10:00,
2013-02-12 20:15:00,50.0,30.0,29.94,WSW,240,0.0,0.0,46,0.00,,---,0.00,VWS V14.01,2013-02-13 01:15:00,
2013-02-12 20:20:00,49.8,30.4,29.95,WSW,240,0.0,2.0,47,0.00,,---,0.00,VWS V14.01,2013-02-13 01:20:00,
2013-02-12 20:25:00,49.6,29.7,29.96,WSW,240,0.0,1.0,46,0.00,,---,0.00,VWS V14.01,2013-02-13 01:25:00,
2013-02-12 20:30:00,49.3,28.3,29.96,WSW,237,0.0,3.0,44,0.00,,---,0.00,VWS V14.01,2013-02-13 01:30:00,
2013-02-12 20:35:00,49.2,31.4,29.97,WSW,237,0.0,1.0,50,0.00,,---,0.00,VWS V14.01,2013-02-13 01:35:00,
2013-02-12 20:40:00,49.0,31.2,29.97,WSW,237,0.0,0.0,50,0.00,,---,0.00,VWS V14.01,2013-02-13 01:40:00,
2013-02-12 20:45:00,48.8,30.0,29.97,WSW,237,0.0,0.0,48,0.00,,---,0.00,VWS V14.01,2013-02-13 01:45:00,
2013-02-12 20:50:00,48.6,30.3,29.97,SSE,147,2.0,4.0,49,0.00,,---,0.00,VWS V14.01,2013-02-13 01:50:00,
2013-02-12 20:55:00,48.4,30.1,29.97,SSE,150,1.0,4.0,49,0.00,,---,0.00,VWS V14.01,2013-02-13 01:55:00,
2013-02-12 21:00:00,48.2,29.5,29.97,SSE,150,0.0,2.0,48,0.00,,---,0.00,VWS V14.01,2013-02-13 02:00:00,
2013-02-12 21:05:00,48.2,31.9,29.97,SSE,150,0.0,0.0,53,0.00,,---,0.00,VWS V14.01,2013-02-13 02:05:00,
2013-02-12 21:10:00,48.1,29.9,29.97,SSE,150,0.0,0.0,49,0.00,,---,0.00,VWS V14.01,2013-02-13 02:10:00,
2013-02-12 21:15:00,48.0,28.8,29.96,SSE,150,0.0,2.0,47,0.00,,---,0.00,VWS V14.01,2013-02-13 02:15:00,
2013-02-12 21:20:00,48.1,27.8,29.96,SSE,150,0.0,4.0,45,0.00,,---,0.00,VWS V14.01,2013-02-13 02:20:00,
2013-02-12 21:25:00,48.2,27.9,29.97,SSE,150,2.0,2.0,45,0.00,,---,0.00,VWS V14.01,2013-02-13 02:25:00,
2013-02-12 21:30:00,48.5,28.1,29.97,NNE,13,4.0,7.0,45,0.00,,---,0.00,VWS V14.01,2013-02-13 02:30:00,
2013-02-12 21:35:00,48.9,28.5,29.97,NE,38,7.0,8.0,45,0.00,,---,0.00,VWS V14.01,2013-02-13 02:35:00,
2013-02-12 21:40:00,49.2,29.9,29.97,SE,141,2.0,8.0,47,0.00,,---,0.00,VWS V14.01,2013-02-13 02:40:00,
2013-02-12 21:45:00,49.3,29.9,29.96,SE,141,2.0,4.0,47,0.00,,---,0.00,VWS V14.01,2013-02-13 02:45:00,
2013-02-12 21:50:00,49.2,31.9,29.96,ESE,106,4.0,6.0,51,0.00,,---,0.00,VWS V14.01,2013-02-13 02:50:00,
2013-02-12 21:55:00,49.1,35.4,29.95,SE,125,0.0,6.0,59,0.00,,---,0.00,VWS V14.01,2013-02-13 02:55:00,
2013-02-12 22:00:00,48.8,37.2,29.96,SE,125,2.0,4.0,64,0.01,,---,0.01,VWS V14.01,2013-02-13 03:00:00,
2013-02-12 22:05:00,48.5,37.7,29.96,SE,131,1.0,4.0,66,0.01,,---,0.01,VWS V14.01,2013-02-13 03:05:00,
2013-02-12 22:10:00,48.0,39.1,29.97,SE,138,2.0,4.0,71,0.01,,---,0.01,VWS V14.01,2013-02-13 03:10:00,
2013-02-12 22:15:00,47.4,39.5,29.97,SE,126,2.0,8.0,74,0.01,,---,0.01,VWS V14.01,2013-02-13 03:15:00,
2013-02-12 22:20:00,46.9,39.1,29.96,SE,128,0.0,5.0,74,0.01,,---,0.01,VWS V14.01,2013-02-13 03:20:00,
2013-02-12 22:25:00,46.4,39.9,29.96,East,82,2.0,5.0,78,0.02,,---,0.02,VWS V14.01,2013-02-13 03:25:00,
2013-02-12 22:30:00,45.9,39.1,29.96,South,169,2.0,5.0,77,0.02,,---,0.02,VWS V14.01,2013-02-13 03:30:00,
2013-02-12 22:35:00,45.6,38.8,29.97,SE,140,1.0,5.0,77,0.02,,---,0.02,VWS V14.01,2013-02-13 03:35:00,
2013-02-12 22:40:00,45.5,39.0,29.96,SE,140,1.0,4.0,78,0.02,,---,0.02,VWS V14.01,2013-02-13 03:40:00,
2013-02-12 22:45:00,45.3,38.9,29.96,SE,140,0.0,2.0,78,0.02,,---,0.02,VWS V14.01,2013-02-13 03:45:00,
2013-02-12 22:50:00,45.1,39.6,29.96,SE,140,0.0,2.0,81,0.03,,---,0.03,VWS V14.01,2013-02-13 03:50:00,
2013-02-12 22:55:00,44.9,39.4,29.97,SE,140,1.0,5.0,81,0.03,,---,0.03,VWS V14.01,2013-02-13 03:55:00,
2013-02-12 23:00:00,44.7,39.9,29.96,SE,140,0.0,4.0,83,0.03,,---,0.03,VWS V14.01,2013-02-13 04:00:00,
2013-02-12 23:05:00,44.5,40.0,29.97,SE,140,0.0,1.0,84,0.02,,---,0.03,VWS V14.01,2013-02-13 04:05:00,
2013-02-12 23:10:00,44.4,39.9,29.96,SE,140,2.0,2.0,84,0.02,,---,0.03,VWS V14.01,2013-02-13 04:10:00,
2013-02-12 23:15:00,44.2,40.0,29.96,SE,140,0.0,2.0,85,0.03,,---,0.04,VWS V14.01,2013-02-13 04:15:00,
2013-02-12 23:20:00,44.0,40.1,29.96,SE,140,2.0,4.0,86,0.03,,---,0.04,VWS V14.01,2013-02-13 04:20:00,
2013-02-12 23:25:00,43.7,39.8,29.96,SE,140,0.0,4.0,86,0.03,,---,0.04,VWS V14.01,2013-02-13 04:25:00,
2013-02-12 23:30:00,43.6,39.4,29.94,SE,140,1.0,2.0,85,0.02,,---,0.04,VWS V14.01,2013-02-13 04:30:00,
2013-02-12 23:35:00,43.5,39.6,29.94,SE,140,0.0,2.0,86,0.02,,---,0.04,VWS V14.01,2013-02-13 04:35:00,
2013-02-12 23:40:00,43.4,39.5,29.93,SE,140,0.0,0.0,86,0.02,,---,0.04,VWS V14.01,2013-02-13 04:40:00,
2013-02-12 23:45:00,43.4,39.5,29.92,SE,140,0.0,0.0,86,0.02,,---,0.04,VWS V14.01,2013-02-13 04:45:00,
2013-02-12 23:50:00,43.4,39.8,29.91,SE,140,0.0,0.0,87,0.02,,---,0.04,VWS V14.01,2013-02-13 04:50:00,
2013-02-12 23:55:00,43.3,39.7,29.91,SE,140,0.0,0.0,87,0.01,,---,0.04,VWS V14.01,2013-02-13 04:55:00,